Location: Newark
(45.2500°N, 7.5833°E)
Time: 07:36:56
(UTC+00:00)

Transit 4A - Visible Passes

Search period start: 22 January 2020 00:00
Search period end: 01 February 2020 00:00
Orbit: 871 x 973 km, 66.8° (Epoch: 21 January)

Date Brightness Start Highest point End Pass type
(mag) Time Alt. Az. Time Alt. Az. Time Alt. Az.
22 Jan 10.2 05:38:43 10° SSE 05:43:39 27° ESE 05:48:30 10° NE visible
23 Jan 9.4 05:47:15 10° S 05:52:47 39° ESE 05:58:14 10° NE visible
24 Jan 8.6 05:56:05 10° SSW 06:01:59 57° ESE 06:07:46 10° NE visible
25 Jan 10.8 04:23:01 10° SE 04:25:49 14° ESE 04:28:35 10° ENE visible
25 Jan 8.0 06:05:13 10° SSW 06:11:15 82° ESE 06:17:11 10° NE visible
26 Jan 10.3 04:30:31 10° SSE 04:34:50 21° ESE 04:39:05 10° ENE visible
26 Jan 7.8 06:14:35 10° SW 06:20:36 72° NW 06:26:31 10° NNE visible
27 Jan 9.7 04:38:45 10° S 04:43:55 31° ESE 04:49:00 10° NE visible
28 Jan 8.9 04:47:24 10° S 04:53:05 45° ESE 04:58:40 10° NE visible
29 Jan 8.2 04:56:21 10° SSW 05:02:18 65° ESE 05:08:09 10° NE visible
30 Jan 10.4 03:22:36 10° SE 03:26:03 16° ESE 03:29:27 10° ENE visible
30 Jan 7.8 05:05:35 10° SSW 05:11:36 88° WNW 05:17:32 10° NNE visible
31 Jan 9.8 03:30:58 12° SSE 03:35:05 24° ESE 03:39:41 10° ENE visible
31 Jan 7.8 05:15:01 10° SW 05:20:59 63° NW 05:26:50 10° NNE visible
